Time,TemperatureF,DewpointF,PressureIn,WindDirection,WindDirectionDegrees,WindSpeedMPH,WindSpeedGustMPH,Humidity,HourlyPrecipIn,Conditions,Clouds,dailyrainin,SoftwareType,DateUTC
2013-08-26 00:01:00,67.2,56.3,30.18,NW,319,0.0,0.0,68,0.00,,,0.00,WeatherCatV1.15B25,2013-08-26 04:01:00,
2013-08-26 00:02:00,67.2,56.3,30.18,NW,319,0.0,0.0,68,0.00,,,0.00,WeatherCatV1.15B25,2013-08-26 04:02:00,
2013-08-26 00:06:00,67.1,56.2,30.17,NW,319,0.0,0.0,68,0.00,,,0.00,WeatherCatV1.15B25,2013-08-26 04:06:00,
2013-08-26 00:11:00,67.0,56.1,30.17,ESE,120,0.0,1.0,68,0.00,,,0.00,WeatherCatV1.15B25,2013-08-26 04:11:00,
2013-08-26 00:16:00,67.0,56.1,30.18,ESE,120,0.0,0.0,68,0.00,,,0.00,WeatherCatV1.15B25,2013-08-26 04:16:00,
2013-08-26 00:21:00,66.9,56.4,30.18,ESE,120,0.0,0.0,69,0.00,,,0.00,WeatherCatV1.15B25,2013-08-26 04:21:00,
2013-08-26 00:26:00,66.8,56.3,30.17,ESE,120,0.0,0.0,69,0.00,,,0.00,WeatherCatV1.15B25,2013-08-26 04:26:00,
2013-08-26 00:31:00,66.7,56.2,30.18,ESE,120,0.0,0.0,69,0.00,,,0.00,WeatherCatV1.15B25,2013-08-26 04:31:00,
2013-08-26 00:36:00,66.6,56.1,30.18,ESE,120,0.0,1.0,69,0.00,,,0.00,WeatherCatV1.15B25,2013-08-26 04:36:00,
2013-08-26 00:41:00,66.6,56.5,30.18,ESE,120,0.0,0.0,70,0.00,,,0.00,WeatherCatV1.15B25,2013-08-26 04:41:00,
2013-08-26 00:46:00,66.6,56.5,30.17,ESE,120,0.0,1.0,70,0.00,,,0.00,WeatherCatV1.15B25,2013-08-26 04:46:00,
2013-08-26 00:51:00,66.6,56.5,30.17,ESE,114,0.0,2.0,70,0.00,,,0.00,WeatherCatV1.15B25,2013-08-26 04:51:00,
2013-08-26 00:56:00,66.6,56.5,30.17,ESE,104,0.0,0.0,70,0.00,,,0.00,WeatherCatV1.15B25,2013-08-26 04:56:00,
2013-08-26 01:01:00,66.6,56.5,30.17,ESE,110,0.0,1.0,70,0.00,,,0.00,WeatherCatV1.15B25,2013-08-26 05:01:00,
2013-08-26 01:06:00,66.6,56.5,30.17,ESE,116,0.0,0.0,70,0.00,,,0.00,WeatherCatV1.15B25,2013-08-26 05:06:00,
2013-08-26 01:11:00,66.7,56.6,30.17,ESE,116,0.0,1.0,70,0.00,,,0.00,WeatherCatV1.15B25,2013-08-26 05:11:00,
2013-08-26 01:16:00,66.7,56.6,30.17,ESE,116,0.0,0.0,70,0.00,,,0.00,WeatherCatV1.15B25,2013-08-26 05:16:00,
2013-08-26 01:21:00,66.7,56.6,30.17,SE,128,0.0,2.0,70,0.00,,,0.00,WeatherCatV1.15B25,2013-08-26 05:21:00,
2013-08-26 01:26:00,66.7,56.6,30.16,SE,128,0.0,1.0,70,0.00,,,0.00,WeatherCatV1.15B25,2013-08-26 05:26:00,
2013-08-26 01:31:00,66.7,56.6,30.16,ESE,117,0.0,1.0,70,0.00,,,0.00,WeatherCatV1.15B25,2013-08-26 05:31:00,
2013-08-26 01:36:00,66.7,56.6,30.16,NNE,18,0.0,1.0,70,0.00,,,0.00,WeatherCatV1.15B25,2013-08-26 05:36:00,
2013-08-26 01:41:00,66.7,56.6,30.16,NNE,18,0.0,1.0,70,0.00,,,0.00,WeatherCatV1.15B25,2013-08-26 05:41:00,
2013-08-26 01:46:00,66.7,57.0,30.16,NNE,18,0.0,1.0,71,0.00,,,0.00,WeatherCatV1.15B25,2013-08-26 05:46:00,
2013-08-26 01:51:00,66.7,56.6,30.15,NNE,18,0.0,1.0,70,0.00,,,0.00,WeatherCatV1.15B25,2013-08-26 05:51:00,
2013-08-26 01:56:00,66.7,57.0,30.15,NNE,18,0.0,0.0,71,0.00,,,0.00,WeatherCatV1.15B25,2013-08-26 05:56:00,
2013-08-26 02:01:00,66.6,56.9,30.16,NNE,18,0.0,0.0,71,0.00,,,0.00,WeatherCatV1.15B25,2013-08-26 06:01:00,
2013-08-26 02:06:00,66.6,56.9,30.15,NNE,18,0.0,1.0,71,0.00,,,0.00,WeatherCatV1.15B25,2013-08-26 06:06:00,
2013-08-26 02:11:00,66.6,56.9,30.16,SE,127,0.0,0.0,71,0.00,,,0.00,WeatherCatV1.15B25,2013-08-26 06:11:00,
2013-08-26 02:16:00,66.7,57.0,30.16,WNW,289,0.0,2.0,71,0.00,,,0.00,WeatherCatV1.15B25,2013-08-26 06:16:00,
2013-08-26 02:21:00,66.8,57.1,30.16,NW,306,0.0,2.0,71,0.00,,,0.00,WeatherCatV1.15B25,2013-08-26 06:21:00,
2013-08-26 02:26:00,66.8,57.1,30.16,NW,326,0.0,1.0,71,0.00,,,0.00,WeatherCatV1.15B25,2013-08-26 06:26:00,
2013-08-26 02:31:00,66.8,57.1,30.16,NW,326,0.0,0.0,71,0.00,,,0.00,WeatherCatV1.15B25,2013-08-26 06:31:00,
2013-08-26 02:36:00,66.8,57.1,30.16,WSW,254,0.0,1.0,71,0.00,,,0.00,WeatherCatV1.15B25,2013-08-26 06:36:00,
2013-08-26 02:41:00,66.8,57.1,30.15,WSW,254,0.0,0.0,71,0.00,,,0.00,WeatherCatV1.15B25,2013-08-26 06:41:00,
2013-08-26 02:46:00,66.7,57.0,30.15,WSW,254,0.0,0.0,71,0.00,,,0.00,WeatherCatV1.15B25,2013-08-26 06:46:00,
2013-08-26 02:51:00,66.7,57.0,30.15,WSW,254,0.0,1.0,71,0.00,,,0.00,WeatherCatV1.15B25,2013-08-26 06:51:00,
2013-08-26 02:56:00,66.6,56.9,30.15,WSW,254,0.0,0.0,71,0.00,,,0.00,WeatherCatV1.15B25,2013-08-26 06:56:00,
2013-08-26 03:01:00,66.6,56.9,30.15,WSW,254,0.0,0.0,71,0.00,,,0.00,WeatherCatV1.15B25,2013-08-26 07:01:00,
2013-08-26 03:06:00,66.6,56.9,30.14,WSW,254,0.0,0.0,71,0.00,,,0.00,WeatherCatV1.15B25,2013-08-26 07:06:00,
2013-08-26 03:11:00,66.6,56.9,30.14,WSW,254,0.0,0.0,71,0.00,,,0.00,WeatherCatV1.15B25,2013-08-26 07:11:00,
2013-08-26 03:16:00,66.6,56.9,30.14,WSW,254,0.0,1.0,71,0.00,,,0.00,WeatherCatV1.15B25,2013-08-26 07:16:00,
2013-08-26 03:21:00,66.6,57.3,30.14,WSW,254,0.0,0.0,72,0.00,,,0.00,WeatherCatV1.15B25,2013-08-26 07:21:00,
2013-08-26 03:26:00,66.4,57.1,30.14,WSW,254,0.0,0.0,72,0.00,,,0.00,WeatherCatV1.15B25,2013-08-26 07:26:00,
2013-08-26 03:31:00,66.5,56.8,30.13,West,268,0.0,1.0,71,0.00,,,0.00,WeatherCatV1.15B25,2013-08-26 07:31:00,
2013-08-26 03:36:00,66.9,56.8,30.13,WSW,257,0.0,0.0,70,0.00,,,0.00,WeatherCatV1.15B25,2013-08-26 07:36:00,
2013-08-26 03:41:00,67.1,56.6,30.13,WNW,290,0.0,2.0,69,0.00,,,0.00,WeatherCatV1.15B25,2013-08-26 07:41:00,
2013-08-26 03:46:00,67.7,56.7,30.13,West,273,2.0,3.0,68,0.00,,,0.00,WeatherCatV1.15B25,2013-08-26 07:46:00,
2013-08-26 03:51:00,68.1,56.7,30.13,NNW,335,0.0,1.0,67,0.00,,,0.00,WeatherCatV1.15B25,2013-08-26 07:51:00,
2013-08-26 03:56:00,68.1,56.7,30.13,NNW,335,0.0,0.0,67,0.00,,,0.00,WeatherCatV1.15B25,2013-08-26 07:56:00,
2013-08-26 04:01:00,68.1,56.7,30.13,WNW,287,0.0,0.0,67,0.00,,,0.00,WeatherCatV1.15B25,2013-08-26 08:01:00,
2013-08-26 04:06:00,68.1,56.7,30.13,NW,304,1.0,1.0,67,0.00,,,0.00,WeatherCatV1.15B25,2013-08-26 08:06:00,
2013-08-26 04:11:00,68.1,57.1,30.13,WNW,301,0.0,0.0,68,0.00,,,0.00,WeatherCatV1.15B25,2013-08-26 08:11:00,
2013-08-26 04:16:00,68.0,56.6,30.12,WNW,297,0.0,2.0,67,0.00,,,0.00,WeatherCatV1.15B25,2013-08-26 08:16:00,
2013-08-26 04:21:00,68.0,56.6,30.12,WNW,296,0.0,0.0,67,0.00,,,0.00,WeatherCatV1.15B25,2013-08-26 08:21:00,
2013-08-26 04:26:00,67.9,56.9,30.12,WNW,296,0.0,0.0,68,0.00,,,0.00,WeatherCatV1.15B25,2013-08-26 08:26:00,
2013-08-26 04:31:00,67.8,56.8,30.11,ESE,117,0.0,2.0,68,0.00,,,0.00,WeatherCatV1.15B25,2013-08-26 08:31:00,
2013-08-26 04:36:00,67.6,57.1,30.11,ESE,117,0.0,1.0,69,0.00,,,0.00,WeatherCatV1.15B25,2013-08-26 08:36:00,
2013-08-26 04:41:00,67.5,57.0,30.11,ESE,117,0.0,0.0,69,0.00,,,0.00,WeatherCatV1.15B25,2013-08-26 08:41:00,
2013-08-26 04:46:00,67.4,57.3,30.10,ESE,117,0.0,0.0,70,0.00,,,0.00,WeatherCatV1.15B25,2013-08-26 08:46:00,
2013-08-26 04:51:00,67.2,57.9,30.11,NNE,32,1.0,1.0,72,0.00,,,0.00,WeatherCatV1.15B25,2013-08-26 08:51:00,
2013-08-26 04:56:00,67.0,57.7,30.11,NNE,28,0.0,0.0,72,0.00,,,0.00,WeatherCatV1.15B25,2013-08-26 08:56:00,
2013-08-26 05:01:00,66.8,57.5,30.11,NNE,28,0.0,0.0,72,0.00,,,0.00,WeatherCatV1.15B25,2013-08-26 09:01:00,
2013-08-26 05:06:00,66.7,57.8,30.10,East,99,1.0,1.0,73,0.00,,,0.00,WeatherCatV1.15B25,2013-08-26 09:06:00,
2013-08-26 05:11:00,66.5,57.6,30.11,East,99,0.0,0.0,73,0.00,,,0.00,WeatherCatV1.15B25,2013-08-26 09:11:00,
2013-08-26 05:16:00,66.4,57.5,30.11,ENE,57,0.0,0.0,73,0.00,,,0.00,WeatherCatV1.15B25,2013-08-26 09:16:00,
2013-08-26 05:21:00,66.3,57.4,30.11,ENE,57,0.0,0.0,73,0.00,,,0.00,WeatherCatV1.15B25,2013-08-26 09:21:00,
2013-08-26 05:26:00,66.2,57.3,30.11,ENE,57,0.0,0.0,73,0.00,,,0.00,WeatherCatV1.15B25,2013-08-26 09:26:00,
2013-08-26 05:31:00,66.1,57.6,30.11,ENE,57,0.0,0.0,74,0.00,,,0.00,WeatherCatV1.15B25,2013-08-26 09:31:00,
2013-08-26 05:36:00,66.0,57.5,30.11,ENE,57,0.0,0.0,74,0.00,,,0.00,WeatherCatV1.15B25,2013-08-26 09:36:00,
2013-08-26 05:41:00,65.9,57.7,30.11,ENE,57,0.0,0.0,75,0.00,,,0.00,WeatherCatV1.15B25,2013-08-26 09:41:00,
2013-08-26 05:46:00,65.7,57.9,30.11,ENE,57,0.0,0.0,76,0.00,,,0.00,WeatherCatV1.15B25,2013-08-26 09:46:00,
2013-08-26 05:51:00,65.5,58.1,30.11,ENE,57,0.0,1.0,77,0.00,,,0.00,WeatherCatV1.15B25,2013-08-26 09:51:00,
2013-08-26 05:56:00,65.3,58.6,30.11,NW,304,0.0,1.0,79,0.00,,,0.00,WeatherCatV1.15B25,2013-08-26 09:56:00,
2013-08-26 06:01:00,65.1,58.8,30.11,WNW,285,0.0,2.0,80,0.00,,,0.00,WeatherCatV1.15B25,2013-08-26 10:01:00,
2013-08-26 06:06:00,65.0,58.7,30.11,WNW,285,0.0,0.0,80,0.00,,,0.00,WeatherCatV1.15B25,2013-08-26 10:06:00,
2013-08-26 06:11:00,64.8,58.8,30.10,WNW,285,0.0,0.0,81,0.00,,,0.00,WeatherCatV1.15B25,2013-08-26 10:11:00,
2013-08-26 06:16:00,64.6,59.0,30.10,WNW,285,0.0,0.0,82,0.00,,,0.00,WeatherCatV1.15B25,2013-08-26 10:16:00,
2013-08-26 06:21:00,64.4,58.8,30.10,WNW,285,0.0,0.0,82,0.00,,,0.00,WeatherCatV1.15B25,2013-08-26 10:21:00,
2013-08-26 06:26:00,64.3,59.0,30.10,WNW,295,0.0,0.0,83,0.00,,,0.00,WeatherCatV1.15B25,2013-08-26 10:26:00,
2013-08-26 06:31:00,64.2,58.9,30.10,WNW,295,0.0,0.0,83,0.00,,,0.00,WeatherCatV1.15B25,2013-08-26 10:31:00,
2013-08-26 06:36:00,64.1,58.8,30.10,WNW,295,0.0,0.0,83,0.00,,,0.00,WeatherCatV1.15B25,2013-08-26 10:36:00,
2013-08-26 06:41:00,64.0,59.1,30.10,WNW,295,0.0,0.0,84,0.00,,,0.00,WeatherCatV1.15B25,2013-08-26 10:41:00,
2013-08-26 06:46:00,63.9,59.0,30.09,WNW,295,0.0,0.0,84,0.00,,,0.00,WeatherCatV1.15B25,2013-08-26 10:46:00,
2013-08-26 06:51:00,63.9,59.3,30.09,WNW,295,0.0,0.0,85,0.00,,,0.00,WeatherCatV1.15B25,2013-08-26 10:51:00,
2013-08-26 06:56:00,63.9,59.3,30.09,WNW,295,0.0,0.0,85,0.00,,,0.00,WeatherCatV1.15B25,2013-08-26 10:56:00,
2013-08-26 07:01:00,63.9,59.6,30.09,WNW,295,0.0,0.0,86,0.00,,,0.00,WeatherCatV1.15B25,2013-08-26 11:01:00,
2013-08-26 07:06:00,64.0,59.4,30.09,WNW,295,0.0,0.0,85,0.00,,,0.00,WeatherCatV1.15B25,2013-08-26 11:06:00,
2013-08-26 07:12:00,64.2,59.6,30.09,WNW,295,0.0,0.0,85,0.00,,,0.00,WeatherCatV1.15B25,2013-08-26 11:12:00,
2013-08-26 07:17:00,64.4,59.8,30.08,WNW,295,0.0,0.0,85,0.00,,,0.00,WeatherCatV1.15B25,2013-08-26 11:17:00,
2013-08-26 07:22:00,64.5,59.6,30.08,WNW,294,0.0,1.0,84,0.00,,,0.00,WeatherCatV1.15B25,2013-08-26 11:22:00,
2013-08-26 07:27:00,64.5,59.6,30.08,WNW,294,0.0,0.0,84,0.00,,,0.00,WeatherCatV1.15B25,2013-08-26 11:27:00,
2013-08-26 07:32:00,64.5,59.6,30.08,WNW,295,0.0,0.0,84,0.00,,,0.00,WeatherCatV1.15B25,2013-08-26 11:32:00,
2013-08-26 07:37:00,64.4,59.5,30.08,WNW,295,0.0,1.0,84,0.00,,,0.00,WeatherCatV1.15B25,2013-08-26 11:37:00,
2013-08-26 07:42:00,64.4,59.5,30.08,WNW,295,0.0,1.0,84,0.00,,,0.00,WeatherCatV1.15B25,2013-08-26 11:42:00,
2013-08-26 07:47:00,64.5,59.6,30.08,South,174,0.0,2.0,84,0.00,,,0.00,WeatherCatV1.15B25,2013-08-26 11:47:00,
2013-08-26 07:52:00,64.5,59.9,30.08,South,174,0.0,0.0,85,0.00,,,0.00,WeatherCatV1.15B25,2013-08-26 11:52:00,
2013-08-26 07:57:00,64.5,59.6,30.08,SSE,157,0.0,0.0,84,0.00,,,0.00,WeatherCatV1.15B25,2013-08-26 11:57:00,
2013-08-26 08:02:00,64.4,59.5,30.07,SE,132,0.0,0.0,84,0.00,,,0.00,WeatherCatV1.15B25,2013-08-26 12:02:00,
2013-08-26 08:07:00,64.5,59.9,30.08,SE,131,0.0,0.0,85,0.00,,,0.00,WeatherCatV1.15B25,2013-08-26 12:07:00,
2013-08-26 08:12:00,64.5,59.9,30.08,ESE,115,0.0,0.0,85,0.00,,,0.00,WeatherCatV1.15B25,2013-08-26 12:12:00,
2013-08-26 08:17:00,64.5,59.9,30.08,ESE,122,0.0,2.0,85,0.00,,,0.00,WeatherCatV1.15B25,2013-08-26 12:17:00,
2013-08-26 08:22:00,64.6,59.7,30.07,ESE,123,3.0,3.0,84,0.00,,,0.00,WeatherCatV1.15B25,2013-08-26 12:22:00,
2013-08-26 08:27:00,64.6,59.3,30.07,ESE,102,0.0,3.0,83,0.00,,,0.00,WeatherCatV1.15B25,2013-08-26 12:27:00,
2013-08-26 08:32:00,64.7,59.7,30.07,NNE,18,0.0,1.0,84,0.00,,,0.00,WeatherCatV1.15B25,2013-08-26 12:32:00,
2013-08-26 08:37:00,64.8,59.8,30.07,NNE,18,1.0,1.0,84,0.00,,,0.00,WeatherCatV1.15B25,2013-08-26 12:37:00,
2013-08-26 08:42:00,64.9,59.6,30.07,SE,127,0.0,3.0,83,0.00,,,0.00,WeatherCatV1.15B25,2013-08-26 12:42:00,
2013-08-26 08:47:00,65.0,59.7,30.07,ESE,118,0.0,2.0,83,0.00,,,0.00,WeatherCatV1.15B25,2013-08-26 12:47:00,
2013-08-26 08:52:00,65.0,60.0,30.06,North,5,0.0,1.0,84,0.00,,,0.00,WeatherCatV1.15B25,2013-08-26 12:52:00,
2013-08-26 08:57:00,65.1,59.8,30.06,ESE,109,0.0,4.0,83,0.00,,,0.00,WeatherCatV1.15B25,2013-08-26 12:57:00,
2013-08-26 09:02:00,65.1,60.1,30.06,ESE,118,0.0,1.0,84,0.00,,,0.00,WeatherCatV1.15B25,2013-08-26 13:02:00,
2013-08-26 09:07:00,65.1,60.1,30.06,North,2,0.0,0.0,84,0.00,,,0.00,WeatherCatV1.15B25,2013-08-26 13:07:00,
2013-08-26 09:12:00,65.1,60.1,30.06,ESE,117,0.0,2.0,84,0.00,,,0.00,WeatherCatV1.15B25,2013-08-26 13:12:00,
2013-08-26 09:17:00,65.1,60.1,30.06,East,97,0.0,1.0,84,0.00,,,0.00,WeatherCatV1.15B25,2013-08-26 13:17:00,
2013-08-26 09:22:00,65.1,60.5,30.05,ENE,70,0.0,1.0,85,0.00,,,0.00,WeatherCatV1.15B25,2013-08-26 13:22:00,
2013-08-26 09:27:00,65.1,60.1,30.05,SSE,152,0.0,2.0,84,0.00,,,0.00,WeatherCatV1.15B25,2013-08-26 13:27:00,
2013-08-26 09:32:00,65.2,60.2,30.05,SE,139,1.0,4.0,84,0.00,,,0.00,WeatherCatV1.15B25,2013-08-26 13:32:00,
2013-08-26 09:37:00,65.4,60.8,30.04,ESE,108,0.0,1.0,85,0.00,,,0.00,WeatherCatV1.15B25,2013-08-26 13:37:00,
2013-08-26 09:42:00,65.6,60.6,30.04,North,4,0.0,1.0,84,0.00,,,0.00,WeatherCatV1.15B25,2013-08-26 13:42:00,
2013-08-26 09:47:00,66.2,61.2,30.04,NNE,23,0.0,1.0,84,0.00,,,0.00,WeatherCatV1.15B25,2013-08-26 13:47:00,
2013-08-26 09:52:00,66.6,60.9,30.03,ESE,113,0.0,2.0,82,0.00,,,0.00,WeatherCatV1.15B25,2013-08-26 13:52:00,
2013-08-26 09:57:00,66.9,61.2,30.04,East,97,0.0,2.0,82,0.00,,,0.00,WeatherCatV1.15B25,2013-08-26 13:57:00,
2013-08-26 10:02:00,67.2,61.2,30.04,ESE,108,1.0,1.0,81,0.00,,,0.00,WeatherCatV1.15B25,2013-08-26 14:02:00,
2013-08-26 10:07:00,67.5,61.1,30.03,WSW,248,0.0,4.0,80,0.00,,,0.00,WeatherCatV1.15B25,2013-08-26 14:07:00,
2013-08-26 10:12:00,67.8,61.4,30.04,SSE,161,0.0,1.0,80,0.00,,,0.00,WeatherCatV1.15B25,2013-08-26 14:12:00,
2013-08-26 10:17:00,68.3,61.5,30.04,SSE,152,1.0,7.0,79,0.00,,,0.00,WeatherCatV1.15B25,2013-08-26 14:17:00,
2013-08-26 10:22:00,69.0,61.8,30.04,North,4,2.0,4.0,78,0.00,,,0.00,WeatherCatV1.15B25,2013-08-26 14:22:00,
2013-08-26 10:27:00,69.5,62.0,30.03,NNW,334,2.0,2.0,77,0.00,,,0.00,WeatherCatV1.15B25,2013-08-26 14:27:00,
2013-08-26 10:32:00,70.1,62.2,30.03,NNW,331,2.0,2.0,76,0.00,,,0.00,WeatherCatV1.15B25,2013-08-26 14:32:00,
2013-08-26 10:37:00,70.4,62.5,30.03,NW,324,0.0,0.0,76,0.00,,,0.00,WeatherCatV1.15B25,2013-08-26 14:37:00,
2013-08-26 10:42:00,70.6,62.3,30.02,WSW,255,3.0,4.0,75,0.00,,,0.00,WeatherCatV1.15B25,2013-08-26 14:42:00,
2013-08-26 10:47:00,71.2,62.9,30.02,ESE,105,3.0,4.0,75,0.00,,,0.00,WeatherCatV1.15B25,2013-08-26 14:47:00,
2013-08-26 10:52:00,72.0,62.9,30.02,North,359,1.0,2.0,73,0.00,,,0.00,WeatherCatV1.15B25,2013-08-26 14:52:00,
2013-08-26 10:57:00,72.8,63.2,30.02,NW,319,1.0,5.0,72,0.00,,,0.00,WeatherCatV1.15B25,2013-08-26 14:57:00,
2013-08-26 11:02:00,73.1,63.1,30.02,NW,320,1.0,2.0,71,0.00,,,0.00,WeatherCatV1.15B25,2013-08-26 15:02:00,
2013-08-26 11:07:00,74.0,63.2,30.01,ESE,109,1.0,4.0,69,0.00,,,0.00,WeatherCatV1.15B25,2013-08-26 15:07:00,
2013-08-26 11:12:00,74.4,63.1,30.01,NW,305,3.0,4.0,68,0.00,,,0.00,WeatherCatV1.15B25,2013-08-26 15:12:00,
2013-08-26 11:17:00,74.7,63.4,30.01,East,96,1.0,1.0,68,0.00,,,0.00,WeatherCatV1.15B25,2013-08-26 15:17:00,
2013-08-26 11:22:00,75.5,63.8,30.01,WNW,287,2.0,4.0,67,0.00,,,0.00,WeatherCatV1.15B25,2013-08-26 15:22:00,
2013-08-26 11:27:00,75.8,63.6,30.01,NW,326,1.0,1.0,66,0.00,,,0.00,WeatherCatV1.15B25,2013-08-26 15:27:00,
2013-08-26 11:32:00,76.4,64.6,30.01,ESE,110,2.0,2.0,67,0.00,,,0.00,WeatherCatV1.15B25,2013-08-26 15:32:00,
2013-08-26 11:37:00,77.1,63.5,30.01,North,1,1.0,1.0,63,0.00,,,0.00,WeatherCatV1.15B25,2013-08-26 15:37:00,
2013-08-26 11:42:00,77.4,64.2,30.00,NNW,340,3.0,3.0,64,0.00,,,0.00,WeatherCatV1.15B25,2013-08-26 15:42:00,
2013-08-26 11:47:00,77.3,64.2,30.00,NNW,336,1.0,3.0,64,0.00,,,0.00,WeatherCatV1.15B25,2013-08-26 15:47:00,
2013-08-26 11:52:00,77.8,64.2,29.99,West,276,2.0,4.0,63,0.00,,,0.00,WeatherCatV1.15B25,2013-08-26 15:52:00,
2013-08-26 11:57:00,78.1,64.0,29.99,North,4,1.0,4.0,62,0.00,,,0.00,WeatherCatV1.15B25,2013-08-26 15:57:00,
2013-08-26 12:02:00,78.0,64.4,29.99,NW,316,0.0,4.0,63,0.00,,,0.00,WeatherCatV1.15B25,2013-08-26 16:02:00,
2013-08-26 12:07:00,78.1,64.5,29.99,North,356,5.0,7.0,63,0.00,,,0.00,WeatherCatV1.15B25,2013-08-26 16:07:00,
2013-08-26 12:12:00,78.1,64.9,29.99,WNW,302,1.0,3.0,64,0.00,,,0.00,WeatherCatV1.15B25,2013-08-26 16:12:00,
2013-08-26 12:17:00,78.7,65.0,29.98,NW,325,2.0,4.0,63,0.00,,,0.00,WeatherCatV1.15B25,2013-08-26 16:17:00,
2013-08-26 12:22:00,79.2,65.0,29.98,NNW,342,2.0,5.0,62,0.00,,,0.00,WeatherCatV1.15B25,2013-08-26 16:22:00,
2013-08-26 12:27:00,79.6,64.9,29.98,WSW,250,2.0,8.0,61,0.00,,,0.00,WeatherCatV1.15B25,2013-08-26 16:27:00,
2013-08-26 12:32:00,80.1,64.9,29.98,NNW,330,3.0,6.0,60,0.00,,,0.00,WeatherCatV1.15B25,2013-08-26 16:32:00,
2013-08-26 12:37:00,79.9,64.7,29.97,NNW,333,2.0,8.0,60,0.00,,,0.00,WeatherCatV1.15B25,2013-08-26 16:37:00,
2013-08-26 12:42:00,79.8,65.6,29.97,NW,311,1.0,3.0,62,0.00,,,0.00,WeatherCatV1.15B25,2013-08-26 16:42:00,
2013-08-26 12:47:00,80.4,65.2,29.97,NNW,343,0.0,7.0,60,0.00,,,0.00,WeatherCatV1.15B25,2013-08-26 16:47:00,
2013-08-26 12:52:00,80.6,65.4,29.97,WNW,295,6.0,6.0,60,0.00,,,0.00,WeatherCatV1.15B25,2013-08-26 16:52:00,
2013-08-26 12:57:00,80.7,65.5,29.97,NNW,342,2.0,7.0,60,0.00,,,0.00,WeatherCatV1.15B25,2013-08-26 16:57:00,
2013-08-26 13:02:00,80.4,65.2,29.96,NW,320,1.0,6.0,60,0.00,,,0.00,WeatherCatV1.15B25,2013-08-26 17:02:00,
2013-08-26 13:07:00,80.5,65.3,29.97,East,85,1.0,6.0,60,0.00,,,0.00,WeatherCatV1.15B25,2013-08-26 17:07:00,
2013-08-26 13:12:00,81.0,65.3,29.96,NE,38,3.0,6.0,59,0.00,,,0.00,WeatherCatV1.15B25,2013-08-26 17:12:00,
2013-08-26 13:17:00,81.3,65.6,29.96,West,279,2.0,4.0,59,0.00,,,0.00,WeatherCatV1.15B25,2013-08-26 17:17:00,
2013-08-26 13:22:00,81.1,65.4,29.96,West,259,3.0,6.0,59,0.00,,,0.00,WeatherCatV1.15B25,2013-08-26 17:22:00,
2013-08-26 13:27:00,80.2,65.0,29.96,WSW,252,1.0,3.0,60,0.00,,,0.00,WeatherCatV1.15B25,2013-08-26 17:27:00,
2013-08-26 13:32:00,79.8,65.1,29.95,SSE,151,3.0,4.0,61,0.00,,,0.00,WeatherCatV1.15B25,2013-08-26 17:32:00,
2013-08-26 13:37:00,80.0,65.3,29.95,NW,311,4.0,6.0,61,0.00,,,0.00,WeatherCatV1.15B25,2013-08-26 17:37:00,
2013-08-26 13:42:00,80.2,66.0,29.95,East,87,1.0,2.0,62,0.00,,,0.00,WeatherCatV1.15B25,2013-08-26 17:42:00,
2013-08-26 13:47:00,80.3,66.1,29.95,East,101,1.0,3.0,62,0.00,,,0.00,WeatherCatV1.15B25,2013-08-26 17:47:00,
2013-08-26 13:52:00,80.4,66.2,29.94,SSE,164,0.0,1.0,62,0.00,,,0.00,WeatherCatV1.15B25,2013-08-26 17:52:00,
2013-08-26 13:57:00,80.1,65.9,29.95,ESE,108,2.0,8.0,62,0.00,,,0.00,WeatherCatV1.15B25,2013-08-26 17:57:00,
2013-08-26 14:02:00,79.4,65.2,29.95,SSE,163,0.0,6.0,62,0.00,,,0.00,WeatherCatV1.15B25,2013-08-26 18:02:00,
2013-08-26 14:07:00,79.3,66.0,29.95,NNW,331,4.0,4.0,64,0.00,,,0.00,WeatherCatV1.15B25,2013-08-26 18:07:00,
2013-08-26 14:12:00,79.2,65.9,29.94,WNW,282,1.0,1.0,64,0.00,,,0.00,WeatherCatV1.15B25,2013-08-26 18:12:00,
2013-08-26 14:17:00,79.0,66.2,29.94,North,356,2.0,2.0,65,0.00,,,0.00,WeatherCatV1.15B25,2013-08-26 18:17:00,
2013-08-26 14:22:00,78.8,65.6,29.94,WNW,285,0.0,4.0,64,0.00,,,0.00,WeatherCatV1.15B25,2013-08-26 18:22:00,
2013-08-26 14:27:00,78.8,65.6,29.94,North,8,0.0,3.0,64,0.00,,,0.00,WeatherCatV1.15B25,2013-08-26 18:27:00,
2013-08-26 14:32:00,78.8,65.6,29.93,West,280,3.0,4.0,64,0.00,,,0.00,WeatherCatV1.15B25,2013-08-26 18:32:00,
2013-08-26 14:37:00,78.7,65.9,29.93,ENE,68,2.0,4.0,65,0.00,,,0.00,WeatherCatV1.15B25,2013-08-26 18:37:00,
2013-08-26 14:42:00,78.7,65.9,29.93,WNW,286,1.0,3.0,65,0.00,,,0.00,WeatherCatV1.15B25,2013-08-26 18:42:00,
2013-08-26 14:47:00,78.8,65.6,29.93,SE,131,1.0,4.0,64,0.00,,,0.00,WeatherCatV1.15B25,2013-08-26 18:47:00,
2013-08-26 14:52:00,79.0,65.8,29.93,NNW,338,2.0,4.0,64,0.00,,,0.00,WeatherCatV1.15B25,2013-08-26 18:52:00,
2013-08-26 14:57:00,78.9,66.1,29.93,NW,311,2.0,3.0,65,0.00,,,0.00,WeatherCatV1.15B25,2013-08-26 18:57:00,
2013-08-26 15:02:00,78.9,66.6,29.93,ESE,120,0.0,2.0,66,0.00,,,0.00,WeatherCatV1.15B25,2013-08-26 19:02:00,
2013-08-26 15:07:00,79.0,66.2,29.93,NW,312,3.0,3.0,65,0.00,,,0.00,WeatherCatV1.15B25,2013-08-26 19:07:00,
2013-08-26 15:12:00,78.8,66.9,29.93,NW,311,3.0,4.0,67,0.00,,,0.00,WeatherCatV1.15B25,2013-08-26 19:12:00,
2013-08-26 15:17:00,78.6,65.8,29.93,NNW,338,5.0,5.0,65,0.00,,,0.00,WeatherCatV1.15B25,2013-08-26 19:17:00,
2013-08-26 15:22:00,78.5,65.7,29.93,West,271,1.0,4.0,65,0.00,,,0.00,WeatherCatV1.15B25,2013-08-26 19:22:00,
2013-08-26 15:27:00,78.5,65.7,29.92,NW,309,1.0,1.0,65,0.00,,,0.00,WeatherCatV1.15B25,2013-08-26 19:27:00,
2013-08-26 15:32:00,78.5,65.7,29.92,NE,51,1.0,4.0,65,0.00,,,0.00,WeatherCatV1.15B25,2013-08-26 19:32:00,
2013-08-26 15:37:00,78.7,65.9,29.92,SSW,194,0.0,7.0,65,0.00,,,0.00,WeatherCatV1.15B25,2013-08-26 19:37:00,
2013-08-26 15:42:00,78.7,65.9,29.92,WNW,302,3.0,4.0,65,0.00,,,0.00,WeatherCatV1.15B25,2013-08-26 19:42:00,
2013-08-26 15:47:00,78.6,65.8,29.92,SW,233,0.0,3.0,65,0.00,,,0.00,WeatherCatV1.15B25,2013-08-26 19:47:00,
2013-08-26 15:52:00,78.8,66.0,29.92,NW,324,1.0,4.0,65,0.00,,,0.00,WeatherCatV1.15B25,2013-08-26 19:52:00,
2013-08-26 15:57:00,78.9,65.7,29.92,NW,315,2.0,4.0,64,0.00,,,0.00,WeatherCatV1.15B25,2013-08-26 19:57:00,
2013-08-26 16:02:00,78.8,66.0,29.91,WNW,291,4.0,5.0,65,0.00,,,0.00,WeatherCatV1.15B25,2013-08-26 20:02:00,
2013-08-26 16:07:00,78.7,65.9,29.91,NW,314,0.0,4.0,65,0.00,,,0.00,WeatherCatV1.15B25,2013-08-26 20:07:00,
2013-08-26 16:12:00,79.0,66.6,29.91,North,2,0.0,5.0,66,0.00,,,0.00,WeatherCatV1.15B25,2013-08-26 20:12:00,
2013-08-26 16:17:00,79.5,66.7,29.91,SW,236,0.0,3.0,65,0.00,,,0.00,WeatherCatV1.15B25,2013-08-26 20:17:00,
2013-08-26 16:22:00,79.9,67.1,29.91,NNE,18,0.0,1.0,65,0.00,,,0.00,WeatherCatV1.15B25,2013-08-26 20:22:00,
2013-08-26 16:27:00,79.8,66.5,29.91,WNW,300,1.0,4.0,64,0.00,,,0.00,WeatherCatV1.15B25,2013-08-26 20:27:00,
2013-08-26 16:32:00,79.4,67.5,29.91,East,97,0.0,1.0,67,0.00,,,0.00,WeatherCatV1.15B25,2013-08-26 20:32:00,
2013-08-26 16:37:00,79.0,66.6,29.91,ESE,115,2.0,2.0,66,0.00,,,0.00,WeatherCatV1.15B25,2013-08-26 20:37:00,
2013-08-26 16:42:00,78.6,66.7,29.91,SSW,211,1.0,2.0,67,0.00,,,0.00,WeatherCatV1.15B25,2013-08-26 20:42:00,
2013-08-26 16:47:00,78.3,66.8,29.91,East,80,0.0,2.0,68,0.00,,,0.00,WeatherCatV1.15B25,2013-08-26 20:47:00,
2013-08-26 16:52:00,78.0,66.6,29.91,NW,306,0.0,1.0,68,0.00,,,0.00,WeatherCatV1.15B25,2013-08-26 20:52:00,
2013-08-26 16:57:00,77.8,66.8,29.91,ESE,122,0.0,2.0,69,0.00,,,0.00,WeatherCatV1.15B25,2013-08-26 20:57:00,
2013-08-26 17:02:00,77.7,67.1,29.91,NW,325,1.0,1.0,70,0.00,,,0.00,WeatherCatV1.15B25,2013-08-26 21:02:00,
2013-08-26 17:07:00,77.5,66.9,29.91,NNW,348,0.0,0.0,70,0.00,,,0.00,WeatherCatV1.15B25,2013-08-26 21:07:00,
2013-08-26 17:12:00,77.5,66.9,29.91,South,191,1.0,1.0,70,0.00,,,0.00,WeatherCatV1.15B25,2013-08-26 21:12:00,
2013-08-26 17:17:00,77.6,67.4,29.91,SE,146,0.0,0.0,71,0.00,,,0.00,WeatherCatV1.15B25,2013-08-26 21:17:00,
2013-08-26 17:22:00,77.5,67.3,29.90,North,1,0.0,1.0,71,0.00,,,0.00,WeatherCatV1.15B25,2013-08-26 21:22:00,
2013-08-26 17:27:00,77.5,66.9,29.90,East,95,0.0,1.0,70,0.00,,,0.00,WeatherCatV1.15B25,2013-08-26 21:27:00,
2013-08-26 17:32:00,77.5,66.9,29.90,West,262,1.0,2.0,70,0.00,,,0.00,WeatherCatV1.15B25,2013-08-26 21:32:00,
2013-08-26 17:37:00,77.5,66.9,29.90,NW,326,0.0,2.0,70,0.00,,,0.00,WeatherCatV1.15B25,2013-08-26 21:37:00,
2013-08-26 17:42:00,77.5,66.9,29.90,North,352,0.0,1.0,70,0.00,,,0.00,WeatherCatV1.15B25,2013-08-26 21:42:00,
2013-08-26 17:47:00,77.5,66.9,29.89,WNW,298,0.0,1.0,70,0.00,,,0.00,WeatherCatV1.15B25,2013-08-26 21:47:00,
2013-08-26 17:52:00,77.4,67.2,29.89,NW,323,0.0,2.0,71,0.00,,,0.00,WeatherCatV1.15B25,2013-08-26 21:52:00,
2013-08-26 17:57:00,77.3,67.1,29.90,NW,309,0.0,2.0,71,0.00,,,0.00,WeatherCatV1.15B25,2013-08-26 21:57:00,
2013-08-26 18:02:00,77.2,67.0,29.89,NNW,333,1.0,2.0,71,0.00,,,0.00,WeatherCatV1.15B25,2013-08-26 22:02:00,
2013-08-26 18:07:00,77.1,67.0,29.89,NW,315,0.0,1.0,71,0.00,,,0.00,WeatherCatV1.15B25,2013-08-26 22:07:00,
2013-08-26 18:12:00,77.1,67.0,29.90,WNW,293,1.0,3.0,71,0.00,,,0.00,WeatherCatV1.15B25,2013-08-26 22:12:00,
2013-08-26 18:17:00,77.2,67.0,29.90,West,266,1.0,1.0,71,0.00,,,0.00,WeatherCatV1.15B25,2013-08-26 22:17:00,
2013-08-26 18:22:00,77.2,67.0,29.90,WNW,302,4.0,4.0,71,0.00,,,0.00,WeatherCatV1.15B25,2013-08-26 22:22:00,
2013-08-26 18:27:00,77.0,66.9,29.89,NW,311,0.0,0.0,71,0.00,,,0.00,WeatherCatV1.15B25,2013-08-26 22:27:00,
2013-08-26 18:32:00,77.0,66.4,29.89,WNW,295,2.0,3.0,70,0.00,,,0.00,WeatherCatV1.15B25,2013-08-26 22:32:00,
2013-08-26 18:37:00,76.9,66.8,29.89,South,183,0.0,0.0,71,0.00,,,0.00,WeatherCatV1.15B25,2013-08-26 22:37:00,
2013-08-26 18:42:00,76.7,66.6,29.89,SE,145,0.0,0.0,71,0.00,,,0.00,WeatherCatV1.15B25,2013-08-26 22:42:00,
2013-08-26 18:47:00,76.6,66.5,29.90,North,359,1.0,2.0,71,0.00,,,0.00,WeatherCatV1.15B25,2013-08-26 22:47:00,
2013-08-26 18:52:00,76.5,66.8,29.90,West,265,2.0,2.0,72,0.00,,,0.00,WeatherCatV1.15B25,2013-08-26 22:52:00,
2013-08-26 18:57:00,76.5,66.8,29.90,WSW,248,0.0,2.0,72,0.00,,,0.00,WeatherCatV1.15B25,2013-08-26 22:57:00,
2013-08-26 19:02:00,76.5,66.8,29.90,East,98,2.0,2.0,72,0.00,,,0.00,WeatherCatV1.15B25,2013-08-26 23:02:00,
2013-08-26 19:07:00,76.4,66.7,29.89,NW,304,2.0,2.0,72,0.00,,,0.00,WeatherCatV1.15B25,2013-08-26 23:07:00,
2013-08-26 19:12:00,76.4,66.7,29.89,WNW,282,1.0,1.0,72,0.00,,,0.00,WeatherCatV1.15B25,2013-08-26 23:12:00,
2013-08-26 19:17:00,76.4,66.7,29.89,NW,313,1.0,2.0,72,0.00,,,0.00,WeatherCatV1.15B25,2013-08-26 23:17:00,
2013-08-26 19:22:00,76.4,66.7,29.89,NNE,33,0.0,1.0,72,0.00,,,0.00,WeatherCatV1.15B25,2013-08-26 23:22:00,
2013-08-26 19:27:00,76.3,66.6,29.89,West,280,1.0,2.0,72,0.00,,,0.00,WeatherCatV1.15B25,2013-08-26 23:27:00,
2013-08-26 19:32:00,76.3,66.6,29.89,WNW,295,0.0,2.0,72,0.00,,,0.00,WeatherCatV1.15B25,2013-08-26 23:32:00,
2013-08-26 19:37:00,76.2,66.9,29.89,WNW,300,1.0,3.0,73,0.00,,,0.00,WeatherCatV1.15B25,2013-08-26 23:37:00,
2013-08-26 19:42:00,76.1,66.8,29.89,NNW,342,1.0,1.0,73,0.00,,,0.00,WeatherCatV1.15B25,2013-08-26 23:42:00,
2013-08-26 19:47:00,76.0,66.7,29.89,NNW,342,1.0,2.0,73,0.00,,,0.00,WeatherCatV1.15B25,2013-08-26 23:47:00,
2013-08-26 19:52:00,75.9,67.0,29.89,ESE,107,0.0,1.0,74,0.00,,,0.00,WeatherCatV1.15B25,2013-08-26 23:52:00,
2013-08-26 19:57:00,75.7,66.8,29.89,ESE,107,0.0,0.0,74,0.00,,,0.00,WeatherCatV1.15B25,2013-08-26 23:57:00,
2013-08-26 20:02:00,75.6,66.7,29.89,ESE,107,0.0,0.0,74,0.00,,,0.00,WeatherCatV1.15B25,2013-08-27 00:02:00,
2013-08-26 20:07:00,75.5,66.6,29.89,ESE,120,0.0,1.0,74,0.00,,,0.00,WeatherCatV1.15B25,2013-08-27 00:07:00,
2013-08-26 20:12:00,75.4,66.5,29.89,ESE,120,0.0,0.0,74,0.00,,,0.00,WeatherCatV1.15B25,2013-08-27 00:12:00,
2013-08-26 20:17:00,75.4,66.9,29.89,ESE,110,0.0,1.0,75,0.00,,,0.00,WeatherCatV1.15B25,2013-08-27 00:17:00,
2013-08-26 20:22:00,75.2,66.7,29.89,ESE,110,0.0,0.0,75,0.00,,,0.00,WeatherCatV1.15B25,2013-08-27 00:22:00,
2013-08-26 20:27:00,75.1,67.0,29.89,ESE,110,0.0,0.0,76,0.00,,,0.00,WeatherCatV1.15B25,2013-08-27 00:27:00,
2013-08-26 20:32:00,74.9,66.8,29.89,ESE,110,0.0,0.0,76,0.00,,,0.00,WeatherCatV1.15B25,2013-08-27 00:32:00,
2013-08-26 20:37:00,74.9,66.8,29.90,ESE,110,0.0,0.0,76,0.00,,,0.00,WeatherCatV1.15B25,2013-08-27 00:37:00,
2013-08-26 20:42:00,74.9,66.8,29.89,ESE,110,0.0,0.0,76,0.00,,,0.00,WeatherCatV1.15B25,2013-08-27 00:42:00,
2013-08-26 20:47:00,74.8,67.1,29.90,NW,304,2.0,2.0,77,0.00,,,0.00,WeatherCatV1.15B25,2013-08-27 00:47:00,
2013-08-26 20:52:00,74.8,66.7,29.89,WNW,294,0.0,0.0,76,0.00,,,0.00,WeatherCatV1.15B25,2013-08-27 00:52:00,
2013-08-26 20:57:00,74.9,66.8,29.89,WNW,294,0.0,0.0,76,0.00,,,0.00,WeatherCatV1.15B25,2013-08-27 00:57:00,
2013-08-26 21:02:00,74.9,66.8,29.89,NW,321,1.0,2.0,76,0.00,,,0.00,WeatherCatV1.15B25,2013-08-27 01:02:00,
2013-08-26 21:07:00,74.8,66.7,29.89,NW,316,0.0,1.0,76,0.00,,,0.00,WeatherCatV1.15B25,2013-08-27 01:07:00,
2013-08-26 21:12:00,74.8,66.7,29.89,NW,314,0.0,0.0,76,0.00,,,0.00,WeatherCatV1.15B25,2013-08-27 01:12:00,
2013-08-26 21:17:00,74.6,66.9,29.89,NW,314,0.0,0.0,77,0.00,,,0.00,WeatherCatV1.15B25,2013-08-27 01:17:00,
2013-08-26 21:22:00,74.5,66.8,29.89,NW,314,0.0,0.0,77,0.00,,,0.00,WeatherCatV1.15B25,2013-08-27 01:22:00,
2013-08-26 21:31:00,74.1,66.8,29.89,ESE,108,0.0,1.0,78,0.00,,,0.00,WeatherCatV1.15B25,2013-08-27 01:31:00,
2013-08-26 21:36:00,74.0,66.7,29.89,NE,44,0.0,1.0,78,0.00,,,0.00,WeatherCatV1.15B25,2013-08-27 01:36:00,
2013-08-26 21:41:00,73.9,66.6,29.89,NE,44,0.0,1.0,78,0.00,,,0.00,WeatherCatV1.15B25,2013-08-27 01:41:00,
2013-08-26 21:46:00,73.9,67.0,29.89,NE,40,0.0,0.0,79,0.00,,,0.00,WeatherCatV1.15B25,2013-08-27 01:46:00,
2013-08-26 21:51:00,73.8,66.9,29.89,NE,40,0.0,0.0,79,0.00,,,0.00,WeatherCatV1.15B25,2013-08-27 01:51:00,
2013-08-26 21:56:00,73.7,66.8,29.89,NE,40,0.0,0.0,79,0.00,,,0.00,WeatherCatV1.15B25,2013-08-27 01:56:00,
2013-08-26 22:01:00,73.7,66.8,29.89,NE,41,0.0,0.0,79,0.00,,,0.00,WeatherCatV1.15B25,2013-08-27 02:01:00,
2013-08-26 22:06:00,73.6,66.7,29.89,NE,41,0.0,0.0,79,0.00,,,0.00,WeatherCatV1.15B25,2013-08-27 02:06:00,
2013-08-26 22:11:00,73.5,66.6,29.89,ESE,103,0.0,1.0,79,0.00,,,0.00,WeatherCatV1.15B25,2013-08-27 02:11:00,
2013-08-26 22:16:00,73.5,66.6,29.89,ESE,103,1.0,1.0,79,0.00,,,0.00,WeatherCatV1.15B25,2013-08-27 02:16:00,
2013-08-26 22:21:00,73.5,66.6,29.89,ESE,103,0.0,0.0,79,0.00,,,0.00,WeatherCatV1.15B25,2013-08-27 02:21:00,
2013-08-26 22:26:00,73.5,66.9,29.89,ESE,103,0.0,0.0,80,0.00,,,0.00,WeatherCatV1.15B25,2013-08-27 02:26:00,
2013-08-26 22:31:00,73.5,66.9,29.89,ESE,103,0.0,1.0,80,0.00,,,0.00,WeatherCatV1.15B25,2013-08-27 02:31:00,
2013-08-26 22:36:00,73.5,66.6,29.89,ESE,104,0.0,1.0,79,0.00,,,0.00,WeatherCatV1.15B25,2013-08-27 02:36:00,
2013-08-26 22:41:00,73.5,66.6,29.89,SW,216,0.0,1.0,79,0.00,,,0.00,WeatherCatV1.15B25,2013-08-27 02:41:00,
2013-08-26 22:46:00,73.5,66.6,29.89,SW,216,0.0,0.0,79,0.00,,,0.00,WeatherCatV1.15B25,2013-08-27 02:46:00,
2013-08-26 22:51:00,73.5,66.6,29.89,SW,216,0.0,0.0,79,0.00,,,0.00,WeatherCatV1.15B25,2013-08-27 02:51:00,
2013-08-26 22:56:00,73.4,66.8,29.89,SSE,153,0.0,0.0,80,0.00,,,0.00,WeatherCatV1.15B25,2013-08-27 02:56:00,
2013-08-26 23:01:00,73.3,66.7,29.88,SSE,153,0.0,0.0,80,0.00,,,0.00,WeatherCatV1.15B25,2013-08-27 03:01:00,
2013-08-26 23:06:00,73.2,66.6,29.88,SSE,153,0.0,0.0,80,0.00,,,0.00,WeatherCatV1.15B25,2013-08-27 03:06:00,
2013-08-26 23:11:00,73.1,66.6,29.87,SSE,153,0.0,0.0,80,0.00,,,0.00,WeatherCatV1.15B25,2013-08-27 03:11:00,
2013-08-26 23:16:00,73.0,66.5,29.87,SSE,153,0.0,0.0,80,0.00,,,0.00,WeatherCatV1.15B25,2013-08-27 03:16:00,
2013-08-26 23:21:00,72.8,66.6,29.87,SSE,153,0.0,0.0,81,0.00,,,0.00,WeatherCatV1.15B25,2013-08-27 03:21:00,
2013-08-26 23:26:00,72.7,66.5,29.87,SSE,153,0.0,0.0,81,0.00,,,0.00,WeatherCatV1.15B25,2013-08-27 03:26:00,
2013-08-26 23:31:00,72.6,66.4,29.86,SSE,153,0.0,0.0,81,0.00,,,0.00,WeatherCatV1.15B25,2013-08-27 03:31:00,
2013-08-26 23:36:00,72.5,66.7,29.86,SSE,153,0.0,0.0,82,0.00,,,0.00,WeatherCatV1.15B25,2013-08-27 03:36:00,
2013-08-26 23:41:00,72.4,66.6,29.86,SSE,153,0.0,0.0,82,0.00,,,0.00,WeatherCatV1.15B25,2013-08-27 03:41:00,
2013-08-26 23:46:00,72.3,66.5,29.86,SSE,153,0.0,0.0,82,0.00,,,0.00,WeatherCatV1.15B25,2013-08-27 03:46:00,
2013-08-26 23:51:00,72.2,66.4,29.86,SSE,153,0.0,0.0,82,0.00,,,0.00,WeatherCatV1.15B25,2013-08-27 03:51:00,
2013-08-26 23:56:00,72.1,66.6,29.86,SSE,153,0.0,0.0,83,0.00,,,0.00,WeatherCatV1.15B25,2013-08-27 03:56:00,